Voltar ao catálogo

CZ-4 DEB

AtivoSSO
NORAD 26194·DEBRIS·🇨🇳 China

Lançado Oct 14, 1999 de Taiyuan Satellite Launch Center

Loading…

Próximas Passagens (próximas 24 horas)

TLE

AtualizadoSource: Space-Track

Época: Sep 14, 2026, 08:55 UTC

1 26194U 99057CG  26257.37177321  .00001407  00000-0  22900-3 0  9993
2 26194  98.1908 217.5711 0043108  50.8568 101.2039 14.72055116658031

Acompanhe CZ-4 DEB em tempo real com AllMySat

Download on the App Store